Terminal Aerodrome Forecast
Issued by NWS Houston/Galveston TX

Home | Current Version | Previous Version | Text Only | Print | Product List | Glossary On
Versions: 1 2 3 4 5 6 7 8 9 10 11 12 13 14 15 16 17 18 19 20 21 22 23 24 25 26 27 28 29 30 31 32 33 34 35 36 37 38 39 40 41 42 43 44 45 46 47 48 49 50
000
FTUS44 KHGX 302134
TAFHOU
TAFHOU
TAF AMD
KHOU 302134Z 3022/3118 VRB10G17KT P6SM VCTS SCT035CB SCT120 BKN250
      TEMPO 3023/3102 2SM TSRA
     FM310300 VRB03KT P6SM VCSH SCT020 BKN120
     FM310900 34002KT P6SM VCTS SCT020CB BKN110
     FM311300 34005KT P6SM SCT090
     FM311700 35007KT P6SM SCT040=

USA.gov is the U.S. government's official web portal to all federal, state and local government web resources and services.